Regional Weather Roundup
Issued by NWS

Home | Current Version | Previous Version | Text Only | Print | Product List | Glossary On
Versions: 1 2 3 4 5 6 7 8 9 10 11 12 13 14 15 16 17 18 19 20 21 22 23 24 25 26 27 28 29 30 31 32 33 34 35 36 37 38 39 40 41 42 43 44 45 46 47 48 49 50
000
ASUS43 KBIS 252210
RWRND

NORTH DAKOTA REGIONAL WEATHER ROUNDUP
NATIONAL WEATHER SERVICE BISMARCK ND
500 PM CDT SUN SEP 25 2016

NOTE: "FAIR" INDICATES FEW OR NO CLOUDS BELOW 12,000 FEET WITH NO
SIGNIFICANT WEATHER AND/OR OBSTRUCTIONS TO VISIBILITY.


NDZ001>003-009>011-017-252300-
NORTHWEST NORTH DAKOTA

CITY           SKY/WX    TMP DP  RH WIND       PRES   REMARKS
WILLISTON      SUNNY     64  32  30 NW20G35   30.18F
MINOT          SUNNY     63  35  35 NW31G43   30.06R
MINOT AFB      SUNNY     62  35  36 NW35G46   30.03R
$$

NDZ018>021-031>035-040>046-252300-
SOUTHWEST NORTH DAKOTA

CITY           SKY/WX    TMP DP  RH WIND       PRES   REMARKS
BISMARCK       MOSUNNY   63  32  31 NW24G37   30.12S
DICKINSON      MOSUNNY   61  29  29 NW22G36   30.18S
GARRISON         N/A     62  33  33 NW30G46   30.09R
HETTINGER ARPT MOSUNNY   63  33  32 NW29G38   30.23S
$$

NDZ004>008-012>016-024-026-027-054-252300-
NORTHEAST NORTH DAKOTA

CITY           SKY/WX    TMP DP  RH WIND       PRES   REMARKS
GRAND FORKS    LGT RAIN  53  48  83 NW18G25   29.88R
GRND FRKS AFB  LGT RAIN  55  46  73 NW16G24   29.89R
DEVILS LAKE    CLOUDY    59  41  51 NW30G37   29.94R
$$

NDZ022-023-025-028>030-036>039-047>053-252300-
SOUTHEAST NORTH DAKOTA

CITY           SKY/WX    TMP DP  RH WIND       PRES   REMARKS
FARGO          CLOUDY    61  42  49 NW28G37   29.92R
JAMESTOWN      PTSUNNY   62  36  37 NW35G45   29.98S
$$




USA.gov is the U.S. government's official web portal to all federal, state and local government web resources and services.